• En Estados Unidos
  • Lista de países
  • Para 7 días
  • Temperatura del agua
  • Mapa Satelital
  • El tiempo en el mapa
  • Informadores
  • user-avatar
    Iniciar sesión

    Tiempo cada hora Kipungo

    Hoy, 20 Enero, Sábado

    Tiempo Temperatura Precipitaciones Viento Presión Humedad
    00:00 +21°C° 0,1 mm 1 mps 651 mmHg 88%
    01:00 +20°C° 0,1 mm 1 mps 651 mmHg 90%
    02:00 +20°C° 1 mm 1 mps 651 mmHg 91%
    03:00 +20°C° 1 mm 1 mps 651 mmHg 92%
    04:00 +20°C° 1 mm 1 mps 651 mmHg 93%
    05:00 +20°C° 0,4 mm 1 mps 651 mmHg 92%
    06:00 +21°C° 0,4 mm 1 mps 652 mmHg 91%
    07:00 +19°C° 0,4 mm 0 mps 652 mmHg 89%
    08:00 +23°C° 0,4 mm 1 mps 652 mmHg 83%
    09:00 +25°C° 0,4 mm 1 mps 653 mmHg 76%
    10:00 +27°C° 0,4 mm 1 mps 653 mmHg 69%
    11:00 +28°C° 0,5 mm 1 mps 653 mmHg 63%
    12:00 +29°C° 0,5 mm 1 mps 653 mmHg 58%
    13:00 +30°C° 0,5 mm 1 mps 653 mmHg 53%
    14:00 +29°C° 1 mm 1 mps 653 mmHg 56%
    15:00 +28°C° 1 mm 1 mps 652 mmHg 59%
    16:00 +28°C° 1 mm 1 mps 651 mmHg 61%
    17:00 +26°C° 1,5 mm 1 mps 651 mmHg 69%
    18:00 +24°C° 1,5 mm 1 mps 651 mmHg 78%
    19:00 +22°C° 1,5 mm 1 mps 651 mmHg 86%
    20:00 +22°C° 0,7 mm 1 mps 651 mmHg 87%
    21:00 +21°C° 0,7 mm 1 mps 652 mmHg 89%
    22:00 +21°C° 0,7 mm 1 mps 652 mmHg 91%
    23:00 +21°C° 0,2 mm 1 mps 652 mmHg 92%

    Mañana, 21 Enero, Domingo

    Tiempo Temperatura Precipitaciones Viento Presión Humedad
    00:00 +20°C° 0,2 mm 1 mps 652 mmHg 93%
    01:00 +20°C° 0,2 mm 1 mps 652 mmHg 94%
    02:00 +20°C° 0,1 mm 1 mps 652 mmHg 94%
    03:00 +20°C° 0,1 mm 1 mps 651 mmHg 94%
    04:00 +20°C° 0,1 mm 1 mps 651 mmHg 94%
    05:00 +20°C° 0,1 mm 1 mps 652 mmHg 93%
    06:00 +20°C° 0,1 mm 1 mps 652 mmHg 93%
    07:00 +21°C° 0,1 mm 1 mps 653 mmHg 92%
    08:00 +22°C° 0,1 mm 1 mps 653 mmHg 87%
    09:00 +23°C° 0,1 mm 1 mps 654 mmHg 83%
    10:00 +24°C° 0,1 mm 2 mps 654 mmHg 78%
    11:00 +25°C° 0,3 mm 2 mps 654 mmHg 74%
    12:00 +26°C° 0,3 mm 2 mps 653 mmHg 70%
    13:00 +26°C° 0,3 mm 2 mps 653 mmHg 66%
    14:00 +26°C° 0,5 mm 2 mps 653 mmHg 68%
    15:00 +26°C° 0,5 mm 2 mps 652 mmHg 69%
    16:00 +25°C° 0,5 mm 2 mps 652 mmHg 71%
    17:00 +24°C° 0,4 mm 2 mps 652 mmHg 77%
    18:00 +23°C° 0,4 mm 2 mps 652 mmHg 83%
    19:00 +20°C° 0,4 mm 2 mps 652 mmHg 89%
    20:00 +20°C° 0 mm 2 mps 652 mmHg 90%
    21:00 +19°C° 0 mm 2 mps 653 mmHg 92%
    22:00 +19°C° 0 mm 2 mps 653 mmHg 93%
    23:00 +18°C° 0 mm 2 mps 653 mmHg 94%

    Pasado mañana, 22 Enero, Lunes

    Tiempo Temperatura Precipitaciones Viento Presión Humedad
    00:00 +18°C° 0 mm 2 mps 652 mmHg 94%
    01:00 +18°C° 0 mm 2 mps 652 mmHg 95%
    02:00 +19°C° 0 mm 1 mps 652 mmHg 95%
    03:00 +18°C° 0 mm 1 mps 652 mmHg 95%
    04:00 +18°C° 0 mm 1 mps 652 mmHg 95%
    05:00 +19°C° 0,1 mm 1 mps 652 mmHg 94%
    06:00 +19°C° 0,1 mm 1 mps 653 mmHg 92%
    07:00 +19°C° 0,1 mm 1 mps 653 mmHg 90%
    08:00 +21°C° 0,6 mm 1 mps 654 mmHg 84%
    09:00 +23°C° 0,6 mm 1 mps 654 mmHg 78%
    10:00 +24°C° 0,6 mm 1 mps 655 mmHg 71%
    11:00 +24°C° 0,7 mm 1 mps 654 mmHg 74%
    12:00 +23°C° 0,7 mm 1 mps 653 mmHg 77%
    13:00 +22°C° 0,7 mm 1 mps 652 mmHg 79%
    14:00 +22°C° 0,4 mm 1 mps 652 mmHg 80%
    15:00 +22°C° 0,4 mm 1 mps 651 mmHg 81%
    16:00 +22°C° 0,4 mm 1 mps 651 mmHg 82%
    17:00 +22°C° 0,2 mm 1 mps 651 mmHg 82%
    18:00 +21°C° 0,2 mm 1 mps 651 mmHg 83%
    19:00 +21°C° 0,2 mm 1 mps 652 mmHg 83%
    20:00 +20°C° 0,1 mm 1 mps 652 mmHg 85%
    21:00 +20°C° 0,1 mm 1 mps 653 mmHg 86%
    22:00 +20°C° 0,1 mm 1 mps 653 mmHg 88%
    23:00 +20°C° 0 mm 1 mps 652 mmHg 89%

    23 Enero, Martes

    Tiempo Temperatura Precipitaciones Viento Presión Humedad
    00:00 +19°C° 0 mm 1 mps 652 mmHg 90%
    01:00 +19°C° 0 mm 1 mps 652 mmHg 92%
    02:00 +19°C° 0 mm 1 mps 651 mmHg 92%
    03:00 +19°C° 0 mm 1 mps 651 mmHg 93%
    04:00 +19°C° 0 mm 1 mps 651 mmHg 94%
    05:00 +19°C° 0 mm 1 mps 651 mmHg 93%
    06:00 +17°C° 0 mm 0 mps 652 mmHg 92%
    07:00 +18°C° 0 mm 0 mps 652 mmHg 91%
    08:00 +20°C° 0,1 mm 0 mps 653 mmHg 81%
    09:00 +25°C° 0,1 mm 1 mps 654 mmHg 71%
    10:00 +27°C° 0,1 mm 1 mps 654 mmHg 61%
    11:00 +28°C° 0,6 mm 1 mps 654 mmHg 60%
    12:00 +28°C° 0,6 mm 1 mps 653 mmHg 60%
    13:00 +28°C° 0,6 mm 1 mps 652 mmHg 59%
    14:00 +28°C° 1,8 mm 1 mps 652 mmHg 62%
    15:00 +27°C° 1,8 mm 1 mps 651 mmHg 64%
    16:00 +27°C° 1,8 mm 1 mps 650 mmHg 67%
    17:00 +25°C° 1,2 mm 2 mps 651 mmHg 73%
    18:00 +24°C° 1,2 mm 2 mps 651 mmHg 79%
    19:00 +21°C° 1,2 mm 2 mps 651 mmHg 85%
    20:00 +20°C° 0,6 mm 2 mps 651 mmHg 87%
    21:00 +20°C° 0,6 mm 2 mps 651 mmHg 89%
    22:00 +19°C° 0,6 mm 2 mps 652 mmHg 91%
    23:00 +20°C° 0,6 mm 1 mps 651 mmHg 92%

    24 Enero, Miércoles

    Tiempo Temperatura Precipitaciones Viento Presión Humedad
    00:00 +20°C° 0,6 mm 1 mps 651 mmHg 93%
    01:00 +20°C° 0,6 mm 1 mps 651 mmHg 94%
    02:00 +20°C° 0,6 mm 1 mps 651 mmHg 94%
    03:00 +20°C° 0,6 mm 1 mps 651 mmHg 93%
    04:00 +20°C° 0,6 mm 1 mps 651 mmHg 93%
    05:00 +20°C° 0,3 mm 1 mps 651 mmHg 92%
    06:00 +20°C° 0,3 mm 1 mps 652 mmHg 91%
    07:00 +20°C° 0,3 mm 1 mps 652 mmHg 90%
    08:00 +22°C° 0,4 mm 1 mps 652 mmHg 82%
    09:00 +24°C° 0,4 mm 2 mps 653 mmHg 74%
    10:00 +26°C° 0,4 mm 2 mps 653 mmHg 66%
    11:00 +27°C° 0,4 mm 2 mps 653 mmHg 61%
    12:00 +28°C° 0,4 mm 2 mps 653 mmHg 57%
    13:00 +29°C° 0,4 mm 2 mps 652 mmHg 52%
    14:00 +29°C° 0,5 mm 2 mps 652 mmHg 55%
    15:00 +28°C° 0,5 mm 2 mps 651 mmHg 58%
    16:00 +27°C° 0,5 mm 2 mps 651 mmHg 61%
    17:00 +26°C° 0,6 mm 2 mps 651 mmHg 67%
    18:00 +24°C° 0,6 mm 2 mps 651 mmHg 72%
    19:00 +23°C° 0,6 mm 2 mps 651 mmHg 78%
    20:00 +21°C° 0,3 mm 2 mps 651 mmHg 81%
    21:00 +20°C° 0,3 mm 2 mps 651 mmHg 85%
    22:00 +19°C° 0,3 mm 2 mps 652 mmHg 89%
    23:00 +19°C° 0 mm 2 mps 651 mmHg 89%

    25 Enero, Jueves

    Tiempo Temperatura Precipitaciones Viento Presión Humedad
    00:00 +19°C° 0 mm 2 mps 651 mmHg 90%
    01:00 +19°C° 0 mm 2 mps 651 mmHg 91%
    02:00 +19°C° 0 mm 2 mps 651 mmHg 93%
    03:00 +19°C° 0 mm 1 mps 651 mmHg 94%
    04:00 +19°C° 0 mm 1 mps 651 mmHg 95%
    05:00 +19°C° 0 mm 1 mps 651 mmHg 94%
    06:00 +19°C° 0 mm 1 mps 652 mmHg 93%
    07:00 +20°C° 0 mm 1 mps 652 mmHg 92%
    08:00 +22°C° 0 mm 1 mps 652 mmHg 83%
    09:00 +23°C° 0 mm 1 mps 653 mmHg 74%
    10:00 +25°C° 0 mm 1 mps 654 mmHg 65%
    11:00 +26°C° 0,2 mm 1 mps 653 mmHg 61%
    12:00 +27°C° 0,2 mm 1 mps 653 mmHg 57%
    13:00 +28°C° 0,2 mm 1 mps 652 mmHg 53%
    14:00 +27°C° 0,3 mm 1 mps 652 mmHg 55%
    15:00 +27°C° 0,3 mm 1 mps 652 mmHg 57%
    16:00 +27°C° 0,3 mm 1 mps 651 mmHg 58%
    17:00 +25°C° 0,2 mm 1 mps 651 mmHg 64%
    18:00 +24°C° 0,2 mm 1 mps 651 mmHg 69%
    19:00 +23°C° 0,2 mm 2 mps 651 mmHg 75%
    20:00 +21°C° 0 mm 2 mps 652 mmHg 78%
    21:00 +20°C° 0 mm 2 mps 652 mmHg 80%
    22:00 +20°C° 0 mm 2 mps 652 mmHg 83%
    23:00 +19°C° 0,1 mm 2 mps 652 mmHg 85%
    Mostrar más